Station 46066 (LLNR 984.1) - SOUTH KODIAK - 310NM SSW of Kodiak, AK Image indicating link to RSS feed of recent meteorological observations for station 46066


Conditions at 46066 as of
(11:40 am HAST)
2140 GMT on 04/17/2024:
     

Click on the graph icon in the table below to see a time series plot of the last five days of that observation.

5-day plot - Wind Direction Wind Direction (WDIR):SSE ( 160 deg true )
5-day plot - Wind Speed Wind Speed (WSPD): 11.7 kts
5-day plot - Wind Gust Wind Gust (GST): 15.5 kts
5-day plot - Wave Height Wave Height (WVHT): 11.2 ft
5-day plot - Average Wave Period Average Period (APD): 8.5 sec
5-day plot - Mean Wave Direction Mean Wave Direction (MWD):ESE ( 114 deg true )
5-day plot - Atmospheric Pressure Atmospheric Pressure (PRES):29.41 in
5-day plot - Air Temperature Air Temperature (ATMP): 39.6 °F
5-day plot - Water Temperature Water Temperature (WTMP): 39.9 °F
5-day plot - Dew Point Dew Point (DEWP): 39.0 °F
5-day plot - Wind Chill Wind Chill (CHILL): 31.8 °F
5-day plot - Wind Speed at 10 Meters Wind Speed at 10 meters (WSPD10M): 11.7 kts
5-day plot - Wind Speed at 20 Meters Wind Speed at 20 meters (WSPD20M): 13.6 kts
5-day plot -  Wind Speed, Wind Gust and Atmospheric Pressure Combined plot of Wind Speed, Gust, and Air Pressure
Supplemental Measurements
Highest 1-minute Wind Speed
Time (HAST)5-day plot - 1-Minute Wind Speed WSPD 5-day plot - 1-Minute Wind Direction WDIR
11:37 am 11.7 kts-
Previous observations
TIME
(HAST)
5-day plot - Wind Direction
WDIR
 
5-day plot - Wind Speed
WSPD
kts
5-day plot - Wind Gust
GST
kts
5-day plot - Wave Height
WVHT
ft
5-day plot - Dominant Wave Period
DPD
sec
5-day plot - Average Wave Period
APD
sec
5-day plot - Mean Wave Direction
MWD
 
5-day plot - Atmospheric Pressure
PRES
in
5-day plot - Pressure Tendency
PTDY
in
5-day plot - Air Temperature
ATMP
°F
5-day plot - Water Temperature
WTMP
°F
5-day plot - Dew Point
DEWP
°F
5-day plot - Salinity
SAL
psu
5-day plot - Visibility
VIS
nmi
5-day plot - Tide (above MLLW)
TIDE
ft
2024-04-17 11:30 amSSE 9.7 13.6----29.41- 39.6 39.7 39.0---
2024-04-17 11:20 amSSE 11.7 15.5 11.5 108.4ESE29.41- 39.6 39.7 39.0---
2024-04-17 11:10 amSSE 11.7 15.5 11.5-8.4ESE29.41- 39.6 39.7 39.0---
2024-04-17 11:00 amSSE 11.7 13.6----29.40+0.04 39.6 39.7 39.0---
2024-04-17 10:50 amSSE 9.7 13.6 11.5 108.4SSE29.40- 39.6 39.7 39.0---
2024-04-17 10:40 am S 9.7 13.6 11.5-8.4SSE29.39- 39.6 39.7 39.0---
2024-04-17 10:30 am S 9.7 13.6----29.39- 39.6 39.7 39.0---
2024-04-17 10:20 am S 9.7 13.6 11.5 118.6 SE29.39- 39.6 39.7 39.0---
2024-04-17 10:10 am S 9.7 13.6 11.5-8.6 SE29.39- 39.6 39.7 39.0---
2024-04-17 10:00 am S 9.7 13.6----29.39+0.05 39.6 39.7 39.0---
2024-04-17 09:50 am S 9.7 13.6 12.1 118.8ESE29.39- 39.4 39.7 38.8---
2024-04-17 09:40 am S 9.7 11.7----29.39- 39.4 39.7 38.8---
2024-04-17 09:30 am S 7.8 11.7----29.38- 39.4 39.7 38.8---
2024-04-17 09:20 am S 9.7 11.7 11.5 118.5ESE29.38- 39.2 39.7 38.7---
2024-04-17 09:10 am S 9.7 13.6 11.5-8.5ESE29.38- 39.2 39.7 38.7---
2024-04-17 09:00 am S 11.7 13.6----29.37+0.04 39.0 39.7 38.5---
2024-04-17 08:50 am S 9.7 13.6 11.2 128.5ESE29.37- 39.0 39.7 38.5---
2024-04-17 08:40 am S 9.7 11.7 11.2-8.5ESE29.37- 39.0 39.7 38.5---
2024-04-17 08:30 am S 9.7 13.6----29.37- 39.0 39.7 38.5---
2024-04-17 08:20 am S 11.7 15.5 10.8 118.4ESE29.36- 39.0 39.7 38.5---
2024-04-17 08:10 amSSW 9.7 15.5 10.8-8.4ESE29.36- 38.8 39.7 38.3---
2024-04-17 08:00 am S 11.7 15.5----29.36+0.03 38.8 39.7 38.3---
2024-04-17 07:50 am S 11.7 15.5 10.8 118.2 E29.36- 39.0 39.7 38.5---
2024-04-17 07:40 am S 11.7 13.6 10.8-8.2 E29.35- 39.2 39.7 38.7---
2024-04-17 07:30 amSSW 9.7 13.6----29.35- 39.0 39.7 38.5---
2024-04-17 07:20 amSSW 9.7 13.6 11.8 118.7 SE29.34- 39.0 39.7 38.5---
2024-04-17 07:10 amSSW 11.7 15.5 11.8-8.7 SE29.34- 39.0 39.7 38.5---
2024-04-17 07:00 amSSW 11.7 15.5----29.34+0.01 39.0 39.6 38.5---
2024-04-17 06:50 amSSW 11.7 15.5 12.5 118.5ESE29.34- 39.0 39.6 38.5---
2024-04-17 06:40 amSSW 11.7 15.5 12.5-8.5ESE29.34- 39.0 39.6 38.5---
2024-04-17 06:30 amSSW 11.7 15.5----29.34- 38.8 39.6 38.3---
2024-04-17 06:20 amSSW 11.7 15.5 11.8 108.5 SE29.34- 38.8 39.6 38.3---
2024-04-17 06:10 am S 11.7 15.5 11.8-8.5 SE29.34- 38.8 39.6 38.3---
2024-04-17 06:00 am S 9.7 13.6----29.34+0.00 39.0 39.6 38.5---
2024-04-17 05:50 am S 9.7 13.6 11.8 118.4ESE29.33- 38.8 39.6 38.3---
2024-04-17 05:40 am S 9.7 11.7 11.8-8.4ESE29.33- 39.0 39.6 38.5---
2024-04-17 05:30 am S 7.8 11.7----29.33- 38.8 39.6 38.3---
2024-04-17 05:20 am S 7.8 11.7 12.5 118.6ESE29.33- 38.8 39.6 38.3---
2024-04-17 05:10 am S 7.8 11.7 12.5-8.6ESE29.33- 38.8 39.6 38.3---
2024-04-17 05:00 am S 7.8 9.7----29.32-0.02 38.8 39.6 38.3---
2024-04-17 04:50 am S 5.8 9.7 12.1 118.2ESE29.32- 38.8 39.6 38.3---
2024-04-17 04:40 am S 5.8 7.8 12.1-8.2ESE29.32- 38.8 39.6 38.3---
2024-04-17 04:30 am S 5.8 9.7----29.33- 38.8 39.6 38.3---
2024-04-17 04:20 am S 5.8 7.8 13.1 118.6ESE29.32- 38.8 39.6 38.3---
2024-04-17 04:10 am S 5.8 9.7 13.1-8.6ESE29.33- 38.7 39.6 38.1---
2024-04-17 04:00 am S 5.8 7.8----29.32-0.03 38.8 39.6 38.3---
2024-04-17 03:50 am S 3.9 7.8 14.1 118.7ESE29.33- 38.8 39.6 38.3---
2024-04-17 03:40 am S 5.8 7.8 14.1-8.7ESE29.33- 38.8 39.6 38.3---
2024-04-17 03:30 am S 5.8 9.7----29.33- 38.8 39.6 38.3---
2024-04-17 03:20 amSSW 5.8 9.7 12.1 118.1ESE29.33- 38.8 39.6 38.3---
2024-04-17 03:10 amSSW 5.8 9.7 12.1-8.1ESE29.33- 38.8 39.6 38.3---
2024-04-17 03:00 amSSW 5.8 9.7----29.33-0.05 38.8 39.6 38.3---
2024-04-17 02:50 am S 5.8 7.8 12.8 118.4 SE29.34- 39.0 39.6 38.5---
2024-04-17 02:40 amSSW 5.8 9.7----29.34- 39.0 39.6 38.5---
2024-04-17 02:30 am SW 5.8 11.7----29.34- 39.0 39.6 38.5---
2024-04-17 02:20 amSSW 5.8 11.7 12.5 118.3ESE29.34- 39.0 39.6 38.5---
2024-04-17 02:10 amSSW 7.8 11.7----29.34- 39.2 39.6 38.7---
2024-04-17 02:00 am S 7.8 11.7----29.35-0.04 39.2 39.6 38.7---
2024-04-17 01:50 am S 7.8 9.7 13.5 118.6ESE29.35- 39.2 39.7 38.7---
2024-04-17 01:40 am S 5.8 9.7----29.36- 39.2 39.7 38.7---
2024-04-17 01:30 am S 5.8 9.7----29.36- 39.2 39.7 38.7---
2024-04-17 01:20 am S 5.8 7.8 12.1 117.9ESE29.36- 39.2 39.7 38.7---
2024-04-17 01:10 amSSW 5.8 9.7 12.1-7.9ESE29.36- 39.2 39.7 38.7---
2024-04-17 01:00 amSSW 7.8 9.7----29.36-0.04 39.2 39.7 38.7---
2024-04-17 12:50 am S 5.8 9.7 13.1 118.2ESE29.36- 39.2 39.7 38.7---
2024-04-17 12:40 am S 5.8 9.7 13.1-8.2ESE29.37- 39.4 39.7 38.8---
2024-04-17 12:30 am S 5.8 9.7----29.38- 39.4 39.7 38.8---
2024-04-17 12:20 am S 5.8 7.8 15.7 118.8ESE29.38- 39.6 39.7 39.0---
2024-04-17 12:10 am S 5.8 11.7 15.7-8.8ESE29.38- 39.7 39.7 39.2---
2024-04-17 12:00 am S 5.8 9.7----29.38-0.05 39.7 39.7 39.2---
2024-04-16 11:50 pm S 5.8 7.8 14.8 118.6 SE29.39- 39.7 39.7 39.2---
2024-04-16 11:40 pm S 5.8 11.7 14.8-8.6 SE29.39- 39.7 39.7 39.2---
2024-04-16 11:30 pm S 5.8 9.7----29.39- 39.9 39.7 39.4---
2024-04-16 11:20 pm S 5.8 9.7 13.8 118.4ESE29.40- 39.9 39.7 39.4---
2024-04-16 11:10 pm S 5.8 9.7 13.8-8.4ESE29.39- 40.1 39.7 39.6---
2024-04-16 11:00 pm S 7.8 9.7----29.39-0.06 40.1 39.7 39.6---
2024-04-16 10:50 pmSSE 7.8 9.7 14.1 118.6ESE29.40- 40.1 39.7 39.6---
2024-04-16 10:40 pmSSE 7.8 11.7----29.40- 40.3 39.7 39.7---
2024-04-16 10:30 pmSSE 5.8 9.7----29.40- 40.3 39.7 39.7---
2024-04-16 10:20 pmSSE 5.8 9.7 13.8 118.2ESE29.40- 40.3 39.7 39.7---
2024-04-16 10:10 pm SE 5.8 9.7 13.8-8.2ESE29.40- 40.3 39.7 39.7---
2024-04-16 10:00 pm SE 5.8 11.7----29.40-0.06 40.3 39.7 39.7---
2024-04-16 09:50 pm SE 7.8 11.7 14.1 118.2 SE29.41- 40.3 39.7 39.7---
2024-04-16 09:40 pm SE 7.8 11.7 14.1-8.2 SE29.41- 40.3 39.7 39.7---
2024-04-16 09:30 pm SE 7.8 11.7----29.42- 40.5 39.7 39.9---
2024-04-16 09:20 pm SE 7.8 13.6 14.4 118.3ESE29.42- 40.5 39.7 39.9---
2024-04-16 09:10 pm SE 7.8 13.6 14.4-8.3ESE29.43- 40.5 39.7 39.9---
2024-04-16 09:00 pm SE 9.7 13.6----29.43-0.06 40.5 39.7 39.9---
2024-04-16 08:50 pm SE 9.7 13.6 15.4 118.4ESE29.43- 40.6 39.7 40.1---
2024-04-16 08:40 pmESE 9.7 15.5 15.4-8.4ESE29.44- 40.6 39.7 40.1---
2024-04-16 08:30 pmESE 9.7 15.5----29.44- 40.6 39.7 40.1---
2024-04-16 08:20 pmESE 11.7 15.5 14.1 118.0 SE29.45- 40.6 39.7 40.1---
2024-04-16 08:10 pmESE 11.7 17.5 14.1-8.0 SE29.45- 40.5 39.7 39.9---
2024-04-16 08:00 pmESE 11.7 15.5----29.45-0.08 40.6 39.7 40.1---
2024-04-16 07:50 pmESE 11.7 15.5 15.4 118.3 SE29.46- 40.6 39.7 40.1---
2024-04-16 07:40 pmESE 13.6 17.5 15.4-8.3 SE29.45- 40.6 39.7 40.1---
2024-04-16 07:30 pmESE 13.6 19.4----29.46- 40.5 39.7 39.9---
2024-04-16 07:20 pm E 13.6 19.4 14.1 118.0 SE29.46- 40.6 39.7 40.1---
2024-04-16 07:10 pm E 15.5 19.4 14.1-8.0 SE29.46- 40.6 39.7 40.1---
2024-04-16 07:00 pm E 15.5 19.4----29.47-0.12 40.6 39.7 40.1---
2024-04-16 06:50 pm E 15.5 21.4 15.4 118.1ESE29.47- 40.6 39.7 40.1---
2024-04-16 06:40 pm E 15.5 21.4----29.47- 40.6 39.7 40.1---
2024-04-16 06:30 pm E 15.5 21.4----29.48- 40.6 39.7 40.1---
2024-04-16 06:20 pm E 15.5 23.3 14.1 117.8 SE29.49- 40.6 39.7 40.1---
2024-04-16 06:10 pm E 17.5 23.3 14.1-7.8 SE29.49- 40.6 39.7 40.1---
2024-04-16 06:00 pm E 17.5 21.4----29.50-0.12 40.6 39.7 40.1---
2024-04-16 05:50 pm E 17.5 21.4 14.8 117.7ESE29.51- 40.6 39.7 39.9---
2024-04-16 05:40 pm E 17.5 23.3 14.8-7.7ESE29.51- 40.6 39.7 39.9---
2024-04-16 05:30 pm E 19.4 23.3----29.52- 40.6 39.7 39.9---
2024-04-16 05:20 pm E 17.5 23.3 15.4 117.8ESE29.53- 40.6 39.7 39.9---
2024-04-16 05:10 pm E 19.4 23.3 15.4-7.8ESE29.53- 40.6 39.7 39.9---
2024-04-16 05:00 pm E 19.4 23.3----29.54-0.14 40.6 39.7 39.9---
2024-04-16 04:50 pm E 19.4 25.3 14.4 117.9 SE29.55- 40.6 39.7 39.9---
2024-04-16 04:40 pm E 19.4 25.3 14.4-7.9 SE29.55- 40.6 39.7 39.9---
2024-04-16 04:30 pm E 19.4 25.3----29.56- 40.6 39.7 39.9---
2024-04-16 04:20 pm E 19.4 25.3 14.8 117.9 SE29.57- 40.6 39.7 39.7---
2024-04-16 04:10 pm E 19.4 25.3 14.8-7.9 SE29.58- 40.6 39.7 39.7---
2024-04-16 04:00 pm E 21.4 27.2----29.59-0.15 40.6 39.7 39.7---
2024-04-16 03:50 pm E 19.4 27.2 13.5 117.3 SE29.59- 40.6 39.7 39.7---
2024-04-16 03:40 pm E 21.4 27.2----29.60- 40.6 39.7 39.7---
2024-04-16 03:30 pm E 21.4 27.2----29.61- 40.6 39.7 39.7---
2024-04-16 03:20 pm E 21.4 27.2 14.1 117.6 SE29.62- 40.6 39.7 39.7---
2024-04-16 03:10 pm E 21.4 29.1 14.1-7.6 SE29.62- 40.6 39.7 39.6---
2024-04-16 03:00 pm E 21.4 29.1----29.63-0.15 40.6 39.7 39.6---
2024-04-16 02:50 pm E 21.4 27.2 14.1 107.5 SE29.64- 40.6 39.7 39.6---
2024-04-16 02:40 pm E 23.3 29.1 14.1-7.5 SE29.65- 40.5 39.7 39.4---
2024-04-16 02:30 pm E 21.4 29.1----29.65- 40.5 39.6 39.4---
2024-04-16 02:20 pm E 23.3 31.1 13.1 107.5 SE29.66- 40.5 39.6 39.4---
2024-04-16 02:10 pm E 23.3 31.1 13.1-7.5 SE29.67- 40.6 39.6 39.6---
2024-04-16 02:00 pm E 21.4 27.2----29.68-0.15 40.5 39.6 39.4---
2024-04-16 01:50 pm E 21.4 29.1 13.5 117.4 SE29.69- 40.5 39.6 39.4---
2024-04-16 01:40 pm E 21.4 29.1----29.70- 40.5 39.6 39.2---
2024-04-16 01:10 pm E 23.3 29.1 12.8-7.3 SE29.73- 40.5 39.6 39.2---
2024-04-16 01:00 pm E 23.3 29.1----29.73-0.13 40.5 39.6 39.2---
2024-04-16 12:50 pm E 21.4 29.1 13.1 97.3 SE29.74- 40.5 39.6 39.2---
2024-04-16 12:40 pm E 23.3 31.1 13.1-7.3 SE29.75- 40.5 39.6 39.2---
2024-04-16 12:30 pm E 21.4 29.1----29.76- 40.5 39.6 39.2---
2024-04-16 12:20 pm E 23.3 29.1 13.8 107.4 SE29.77- 40.5 39.6 39.2---
2024-04-16 12:10 pm E 23.3 29.1 13.8-7.4 SE29.78- 40.5 39.6 39.0---
2024-04-16 12:00 pm E 23.3 29.1----29.78-0.12 40.5 39.6 39.0---
2024-04-16 11:50 am E 23.3 29.1 12.8 107.2 SE29.79- 40.5 39.6 39.0---

Detailed Wave Summary
for 46066 as of (11:40 am HAST)
2140 GMT on 04/17/2024:

These wave data are displayed in rounded times.

     

Click on the graph icon in the table below to see a time series plot of the last five days of that observation.

5-day plot - Significant Wave Height Significant Wave Height (WVHT): 11.2 ft
5-day plot - Swell Height Swell Height (SwH): 10.8 ft
5-day plot - Swell Period Swell Period (SwP): 11.4 sec
5-day plot - Swell Direction Swell Direction (SwD):ESE
5-day plot - Wind Wave Height Wind Wave Height (WWH): 2.6 ft
5-day plot - Wind Wave Period Wind Wave Period (WWP): 5.0 sec
5-day plot - Wind Wave Direction Wind Wave Direction (WWD):ESE
5-day plot - Wave Steepness Wave Steepness (STEEPNESS): AVERAGE
5-day plot - Average Wave Period Average Wave Period (APD): 8.5 sec
Previous observations
TIME
(HAST)
5-day plot - Wave Height
WVHT
ft
5-day plot - Swell Height
SwH
ft
5-day plot - Swell Period
SwP
sec
5-day plot - Swell Direction
SwD
 
5-day plot - Wind Wave Height
WWH
ft
5-day plot - Wind Wave Period
WWP
sec
5-day plot - Wind Wave Direction
WWD
 
5-day plot - Wave Steepness
STEEPNESS
 
5-day plot - Average Wave Period
APD
sec
2024-04-17 11:10 am 11.5 11.2 10.0ESE 2.6 4.3 ESE AVERAGE 8.4
2024-04-17 10:40 am 11.5 11.2 10.0SSE 2.3 4.5 ESE AVERAGE 8.4
2024-04-17 10:10 am 11.5 11.2 11.4 SE 2.0 4.5 E AVERAGE 8.6
2024-04-17 09:40 am 12.1 11.8 10.8ESE 1.6 4.0 SE AVERAGE 8.8
2024-04-17 09:10 am 11.5 11.2 11.4ESE 2.3 4.8 ESE AVERAGE 8.5
2024-04-17 08:40 am 11.2 11.2 12.1ESE 2.0 4.5 ESE SWELL 8.5
2024-04-17 08:10 am 10.8 10.5 11.4ESE 2.3 4.5 ESE AVERAGE 8.4
2024-04-17 07:40 am 10.8 10.5 11.4 E 2.6 4.8 ESE AVERAGE 8.2
2024-04-17 07:10 am 11.8 11.5 10.8 SE 2.6 5.3 ESE AVERAGE 8.7
2024-04-17 06:40 am 12.5 11.8 10.8ESE 3.0 4.3 E AVERAGE 8.5
2024-04-17 06:10 am 11.8 11.5 10.0 SE 3.0 5.0 E AVERAGE 8.5
2024-04-17 05:40 am 11.8 11.5 11.4ESE 2.0 4.0 ENE AVERAGE 8.4
2024-04-17 05:10 am 12.5 12.5 11.4ESE 1.6 4.0 E AVERAGE 8.6
2024-04-17 04:40 am 12.1 12.1 10.8ESE 1.6 4.0 ENE AVERAGE 8.2
2024-04-17 04:10 am 13.1 12.8 11.4ESE 2.0 3.7 E AVERAGE 8.6
2024-04-17 03:40 am 14.1 13.8 10.8ESE 1.6 3.2 ESE AVERAGE 8.7
2024-04-17 03:10 am 12.1 11.8 10.8ESE 2.0 3.8 E AVERAGE 8.1
2024-04-17 02:40 am 12.8 12.8 10.8 SE 2.0 3.4 ESE AVERAGE 8.4
2024-04-17 02:10 am 12.5 12.1 11.4ESE 2.0 3.3 ESE AVERAGE 8.3
2024-04-17 01:40 am 13.5 13.5 10.8ESE 1.6 3.7 SE AVERAGE 8.6
2024-04-17 01:10 am 12.1 11.8 11.4ESE 2.0 3.8 SSE AVERAGE 7.9
2024-04-17 12:40 am 13.1 12.8 10.8ESE 2.0 3.8 SE AVERAGE 8.2
2024-04-17 12:10 am 15.7 15.7 11.4ESE 2.0 2.9 ESE AVERAGE 8.8
2024-04-16 11:40 pm 14.8 14.4 11.4 SE 2.0 4.0 E AVERAGE 8.6
2024-04-16 11:10 pm 13.8 13.5 11.4ESE 2.0 3.8 ESE AVERAGE 8.4
2024-04-16 10:40 pm 14.1 14.1 11.4ESE 2.0 4.0 ESE AVERAGE 8.6
2024-04-16 10:10 pm 13.8 13.5 11.4ESE 2.0 3.8 E AVERAGE 8.2
2024-04-16 09:40 pm 14.1 14.1 11.4 SE 2.3 3.6 SE AVERAGE 8.2
2024-04-16 09:10 pm 14.4 14.4 11.4ESE 2.3 4.0 E AVERAGE 8.3
2024-04-16 08:40 pm 15.4 15.1 10.8ESE 3.3 4.8 E AVERAGE 8.4
2024-04-16 08:10 pm 14.1 13.5 11.4 SE 3.9 5.3 ESE AVERAGE 8.0
2024-04-16 07:40 pm 15.4 14.4 10.8 SE 5.2 5.6 ESE AVERAGE 8.3
2024-04-16 07:10 pm 14.1 12.8 11.4 SE 6.6 6.7 ESE AVERAGE 8.0
2024-04-16 06:40 pm 15.4 13.5 11.4ESE 7.9 6.2 E AVERAGE 8.1
2024-04-16 06:10 pm 14.1 11.5 11.4 SE 8.5 6.7 E AVERAGE 7.8
2024-04-16 05:40 pm 14.8 11.8 10.8ESE 8.9 6.7 E AVERAGE 7.7
2024-04-16 05:10 pm 15.4 10.8 10.8ESE 10.8 7.7 ESE AVERAGE 7.8
2024-04-16 04:40 pm 14.4 11.8 11.4 SE 8.2 7.7 E AVERAGE 7.9
2024-04-16 04:10 pm 14.8 11.2 11.4 SE 9.8 6.7 ESE AVERAGE 7.9
2024-04-16 03:40 pm 13.5 10.2 11.4 SE 8.9 5.9 ESE AVERAGE 7.3
2024-04-16 03:10 pm 14.1 11.2 10.8 SE 8.2 7.1 ESE AVERAGE 7.6
2024-04-16 02:40 pm 14.1 11.2 10.0 SE 8.5 5.9 ESE STEEP 7.5
2024-04-16 02:10 pm 13.1 10.5 10.0 SE 8.2 7.7 ESE STEEP 7.5
2024-04-16 01:40 pm 13.5 10.2 10.8 SE 8.9 6.2 ESE AVERAGE 7.4
2024-04-16 01:10 pm 12.8 9.8 10.0 SE 8.2 6.2 ESE AVERAGE 7.3
2024-04-16 12:40 pm 13.1 10.2 9.1 SE 8.2 6.7 ESE STEEP 7.3
2024-04-16 12:10 pm 13.8 0.0-- 13.8 10.0 SE STEEP 7.4

Plot of wave energy versus frequency (and period)